Mount Airy, NC

9:12 AM EST on December 11, 2019 (GMT -0500)
Mount Airy-Surry County

Weather History for KMWK - October, 2019

Change the Weather History Date:

Wednesday, October 30, 2019

  Actual Average (KINT) Record (KINT)
Temperature  
Mean Temperature 60 °F -  
Max Temperature 62 °F 64 °F 85 °F (1984)
Min Temperature 59 °F 44 °F 21 °F (1965)
Degree Days  
Heating Degree Days 4    
Growing Degree Days 10 (Base 50)    
Moisture  
Dew Point 59 °F    
Average Humidity 92    
Maximum Humidity 93    
Minimum Humidity 91    
Precipitation  
Precipitation 0.65 in - - ()
Sea Level Pressure  
Sea Level Pressure 30.19 in    
Wind  
Wind Speed 2 mph ()    
Max Wind Speed 8 mph    
Max Gust Speed -    
Visibility 7.3 miles    
Events Rain    
Averages and records for this station are not official NWS values.
T = Trace of Precipitation, MM = Missing Value Source: Averaged Metar Reports

Daily Weather History Graph

Daily Weather History Graph

Search for Another Location

Airport or City:

Astronomy

Oct. 30, 2019 Rise Set
Actual Time 7:43 AM EDT 6:27 PM EDT
Civil Twilight 7:16 AM EDT 6:54 PM EDT
Nautical Twilight 6:46 AM EDT 7:24 PM EDT
Astronomical Twilight 6:16 AM EDT 7:54 PM EDT
Moon 10:21 AM EDT (10/30) 8:38 PM EDT (10/30)
Length of Visible Light 11h 37m
Length of Day
10h 44m
Waxing Crescent, 8% of the Moon is Illuminated
Oct 30
Waxing Crescent
Nov 4
First Quarter
Nov 12
Full
Nov 19
Last Quarter
Nov 26
New

Hourly Weather History & Observations

Time (EDT) Temp. Dew Point Humidity Pressure Visibility Wind Dir Wind Speed Gust Speed Precip Events Conditions
12:15 AM 59.9 °F 57.7 °F 93% 30.27 in 10.0 mi Calm Calm - N/A   Overcast
12:35 AM 59.9 °F 57.4 °F 91% 30.27 in 10.0 mi Calm Calm - N/A   Overcast
12:55 AM 59.9 °F 57.4 °F 91% 30.27 in 10.0 mi Calm Calm - N/A   Overcast
1:15 AM 59.9 °F 57.4 °F 91% 30.25 in 10.0 mi Calm Calm - N/A   Mostly Cloudy
1:35 AM 59.2 °F 56.8 °F 92% 30.25 in 7.0 mi Calm Calm - N/A   Mostly Cloudy
1:55 AM 59.2 °F 57.0 °F 93% 30.25 in 7.0 mi Calm Calm - N/A   Overcast
2:15 AM 59.9 °F 57.4 °F 91% 30.24 in 7.0 mi Calm Calm - N/A   Overcast
2:35 AM 59.9 °F 57.6 °F 92% 30.24 in 10.0 mi Calm Calm - N/A   Overcast
2:55 AM 59.9 °F 57.4 °F 91% 30.24 in 10.0 mi Calm Calm - N/A   Overcast
3:15 AM 60.4 °F 57.9 °F 91% 30.23 in 10.0 mi ENE 3.5 mph - N/A   Overcast
3:35 AM 61.0 °F 58.5 °F 91% 30.23 in 10.0 mi Calm Calm - N/A   Overcast
3:55 AM 61.0 °F 58.5 °F 91% 30.23 in 10.0 mi Calm Calm - N/A   Overcast
4:15 AM 61.0 °F 58.3 °F 91% 30.23 in 10.0 mi Calm Calm - N/A   Overcast
4:35 AM 61.0 °F 58.3 °F 91% 30.23 in 10.0 mi Calm Calm - N/A   Overcast
4:55 AM 61.0 °F 58.3 °F 91% 30.24 in 10.0 mi East 4.6 mph - N/A   Overcast
5:15 AM 61.0 °F 58.3 °F 91% 30.24 in 10.0 mi East 3.5 mph - N/A   Overcast
5:35 AM 61.0 °F 58.3 °F 91% 30.24 in 10.0 mi Calm Calm - N/A   Overcast
5:55 AM 60.8 °F 58.3 °F 91% 30.24 in 10.0 mi ENE 4.6 mph - N/A   Overcast
6:15 AM 60.8 °F 58.3 °F 91% 30.24 in 7.0 mi ENE 6.9 mph - N/A   Overcast
6:35 AM 60.8 °F 58.1 °F 91% 30.24 in 7.0 mi East 8.1 mph - N/A   Overcast
6:55 AM 60.8 °F 58.1 °F 91% 30.24 in 7.0 mi ENE 4.6 mph - N/A   Overcast
7:15 AM 60.8 °F 58.1 °F 91% 30.24 in 7.0 mi ENE 5.8 mph - N/A   Overcast
7:35 AM 60.8 °F 58.3 °F 91% 30.24 in 1.5 mi ENE 5.8 mph - N/A   Overcast
7:55 AM 60.8 °F 58.3 °F 91% 30.25 in 7.0 mi ENE 4.6 mph - N/A   Overcast
8:15 AM 60.8 °F 58.3 °F 91% 30.25 in 7.0 mi ENE 3.5 mph - N/A   Overcast
8:35 AM 60.8 °F 58.5 °F 92% 30.25 in 7.0 mi ENE 4.6 mph - N/A   Overcast
8:55 AM 61.0 °F 58.8 °F 93% 30.26 in 7.0 mi Calm Calm - N/A   Overcast
9:15 AM 61.2 °F 58.8 °F 92% 30.26 in 7.0 mi Calm Calm - N/A   Overcast
9:35 AM 61.5 °F 59.0 °F 91% 30.27 in 7.0 mi Calm Calm - N/A   Overcast
9:55 AM 61.5 °F 59.0 °F 91% 30.26 in 7.0 mi Calm Calm - N/A Rain Light Rain
10:15 AM 61.3 °F 59.0 °F 92% 30.26 in 5.0 mi Calm Calm - N/A   Light Drizzle
10:35 AM 60.8 °F 58.3 °F 91% 30.25 in 4.0 mi East 4.6 mph - N/A   Overcast
10:55 AM 61.5 °F 59.2 °F 92% 30.25 in 3.0 mi ENE 3.5 mph - N/A   Overcast
11:15 AM 61.9 °F 59.5 °F 92% 30.24 in 5.0 mi East 4.6 mph - N/A Rain Light Rain
11:35 AM 61.9 °F 59.5 °F 92% 30.24 in 3.0 mi East 5.8 mph - N/A Rain Heavy Rain
11:55 AM 62.2 °F 59.9 °F 92% 30.24 in 5.0 mi Calm Calm - N/A   Drizzle
12:15 PM 62.6 °F 60.3 °F 92% 30.23 in 3.0 mi ENE 4.6 mph - N/A   Heavy Drizzle
12:35 PM 62.4 °F 60.1 °F 92% 30.23 in 5.0 mi SE 3.5 mph - N/A Rain Light Rain
12:55 PM 62.4 °F 60.1 °F 92% 30.22 in 10.0 mi Calm Calm - N/A Rain Light Rain
1:15 PM 62.6 °F 60.3 °F 92% 30.21 in 4.0 mi Calm Calm - N/A Rain Heavy Rain
1:35 PM 62.6 °F 60.3 °F 92% 30.19 in 4.0 mi East 3.5 mph - N/A Rain Rain
1:55 PM 62.8 °F 60.4 °F 92% 30.19 in 4.0 mi East 3.5 mph - N/A Rain Rain
2:15 PM 62.8 °F 60.4 °F 92% 30.17 in 5.0 mi ENE 3.5 mph - N/A Rain Rain
2:55 PM 62.8 °F 60.4 °F 92% 30.16 in 2.0 mi Calm Calm - N/A Rain Rain
3:15 PM 62.6 °F 60.3 °F 92% 30.17 in 5.0 mi Calm Calm - N/A Rain Light Rain
3:35 PM 62.6 °F 60.1 °F 91% 30.17 in 5.0 mi Calm Calm - N/A   Drizzle
3:55 PM 62.6 °F 60.3 °F 92% 30.16 in 4.0 mi Calm Calm - N/A Rain Rain
4:15 PM 62.8 °F 60.4 °F 92% 30.16 in 5.0 mi Calm Calm - N/A Rain Light Rain
4:35 PM 62.6 °F 60.3 °F 92% 30.15 in 7.0 mi Calm Calm - N/A Rain Rain
4:55 PM 62.6 °F 60.3 °F 92% 30.14 in 10.0 mi East 4.6 mph - N/A Rain Light Rain
5:15 PM 62.6 °F 60.3 °F 92% 30.15 in 5.0 mi Calm Calm - N/A Rain Heavy Rain
5:35 PM 62.4 °F 59.9 °F 91% 30.14 in 5.0 mi Calm Calm - N/A Rain Light Rain
5:55 PM 62.6 °F 60.1 °F 91% 30.13 in 10.0 mi East 3.5 mph - N/A Rain Rain
6:15 PM 62.2 °F 59.9 °F 92% 30.12 in 10.0 mi East 3.5 mph - N/A Rain Rain
6:35 PM 62.2 °F 59.9 °F 92% 30.12 in 10.0 mi ENE 3.5 mph - N/A Rain Light Rain
6:55 PM 62.6 °F 60.1 °F 91% 30.11 in 10.0 mi ENE 3.5 mph - N/A   Drizzle
7:15 PM 62.6 °F 60.1 °F 91% 30.11 in 10.0 mi ENE 3.5 mph - N/A Rain Light Rain
7:35 PM 62.4 °F 59.9 °F 91% 30.10 in 10.0 mi ENE 4.6 mph - N/A Rain Light Rain
7:55 PM 62.6 °F 60.1 °F 91% 30.10 in 7.0 mi Calm Calm - N/A Rain Rain
8:15 PM 62.2 °F 59.9 °F 92% 30.10 in 7.0 mi East 3.5 mph - N/A Rain Rain
8:35 PM 62.2 °F 59.9 °F 92% 30.10 in 10.0 mi Calm Calm - N/A Rain Light Rain
8:55 PM 62.2 °F 59.9 °F 92% 30.10 in 2.5 mi Calm Calm - 0.16 in Rain Rain
9:15 PM 62.2 °F 59.9 °F 92% 30.10 in 10.0 mi West 4.6 mph - 0.01 in   Drizzle
9:35 PM 62.2 °F 59.9 °F 92% 30.08 in 7.0 mi Calm Calm - 0.12 in Rain Rain
9:55 PM 62.2 °F 59.9 °F 92% 30.07 in 3.0 mi NW 3.5 mph - 0.35 in Rain Heavy Rain
10:15 PM 62.2 °F 59.9 °F 92% 30.09 in 4.0 mi West 3.5 mph - 0.11 in Rain Rain
10:35 PM 62.2 °F 59.9 °F 92% 30.07 in 10.0 mi NE 3.5 mph - 0.12 in Rain Light Rain
10:55 PM 62.2 °F 59.9 °F 92% 30.08 in 10.0 mi Calm Calm - 0.13 in Rain Light Rain
11:15 PM 62.2 °F 59.9 °F 92% 30.07 in 10.0 mi Calm Calm - N/A   Light Drizzle
11:35 PM 62.2 °F 59.9 °F 92% 30.06 in 10.0 mi Calm Calm - N/A Rain Light Rain
11:55 PM 62.2 °F 59.9 °F 92% 30.05 in 10.0 mi Calm Calm - 0.01 in   Overcast